User: anonymous   Login
Location: Unspecified
(0.0000°N, 0.0000°E)
Time: 10:31:31
(UTC+02:00)
Language:

Cosmos 1315 Rocket - Orbit

View from above orbital plane
View from above orbital plane
View from above satellite
View from above satellite

Ground track
Ground track

The orbit data is extracted from the following two-line orbital elements,

1 12904U 81103B   18116.90906069 +.00000497 +00000-0 +32636-4 0  9999
2 12904 081.1751 277.2104 0029504 111.7753 248.6614 15.05483509539805
Epoch (UTC): 26 April 2018 21:49:02
Eccentricity: 0.0029504
inclination: 81.1751°
perigee height: 529 km
apogee height: 570 km
right ascension of ascending node: 277.2104°
argument of perigee: 111.7753°
revolutions per day: 15.05483509
mean anomaly at epoch: 248.6614°
orbit number at epoch: 53980

The dashed part of the orbit path shows where the satellite is in the earth's shadow,  

DLR